This is the latest recevied weather packets stored in our database for station/object WA6OOO. If no packets are shown the sender has not sent any weather packets the latest 10 day(s).
| Time | Temp. | Humidity | Pressure | Rain* | Wind** | Luminosity | Snow |
|---|---|---|---|---|---|---|---|
| 1788040697 | 28.89° C | 58% | 1014.8 hPa | 0 mm | - | 655 W/m² | - |
| 1788040392 | 28.33° C | 58% | 1014.9 hPa | 0 mm | - | 679 W/m² | - |
| 1788040087 | 28.33° C | 58% | 1014.8 hPa | 0 mm | - | 695 W/m² | - |
| 1788039782 | 28.33° C | 58% | 1014.9 hPa | 0 mm | - | 615 W/m² | - |
| 1788039476 | 28.33° C | 58% | 1014.9 hPa | 0 mm | - | 725 W/m² | - |
| 1788039172 | 28.33° C | 59% | 1014.8 hPa | 0 mm | - | 374 W/m² | - |
| 1788038867 | 28.89° C | 57% | 1015 hPa | 0 mm | - | 847 W/m² | - |
| 1788038563 | 28.33° C | 58% | 1015.2 hPa | 0 mm | - | 774 W/m² | - |
| 1788038261 | 27.22° C | 61% | 1015.2 hPa | 0 mm | - | 399 W/m² | - |
| 1788037957 | 27.22° C | 62% | 1014.9 hPa | 0 mm | - | 265 W/m² | - |
| 1788037657 | 27.78° C | 62% | 1015.2 hPa | 0 mm | - | 268 W/m² | - |
| 1788037353 | 28.33° C | 60% | 1015.3 hPa | 0 mm | - | 256 W/m² | - |
| 1788037051 | 28.89° C | 58% | 1015.3 hPa | 0 mm | - | 280 W/m² | - |
| 1788036747 | 28.33° C | 60% | 1015.4 hPa | 0 mm | - | 798 W/m² | - |
| 1788036443 | 28.33° C | 60% | 1015.4 hPa | 0 mm | - | 688 W/m² | - |
| 1788036139 | 28.33° C | 60% | 1015.3 hPa | 0 mm | - | 874 W/m² | - |
| 1788035838 | 28.33° C | 60% | 1015.7 hPa | 0 mm | - | 574 W/m² | - |
| 1788035533 | 28.33° C | 60% | 1015.6 hPa | 0 mm | - | 704 W/m² | - |
| 1788035228 | 28.33° C | 58% | 1015.6 hPa | 0 mm | - | 350 W/m² | - |
| 1788034924 | 28.33° C | 59% | 1015.6 hPa | 0 mm | - | 640 W/m² | - |
| 1788034620 | 28.33° C | 61% | 1015.7 hPa | 0 mm | - | 610 W/m² | - |
| 1788034317 | 27.78° C | 61% | 1015.6 hPa | 0 mm | - | 489 W/m² | - |
| 1788034016 | 27.78° C | 63% | 1015.5 hPa | 0 mm | - | 728 W/m² | - |
| 1788033711 | 27.22° C | 65% | 1015.8 hPa | 0 mm | - | 782 W/m² | - |
| 1788033410 | 26.67° C | 68% | 1015.9 hPa | 0 mm | - | 840 W/m² | - |
* Rain latest hour (hover to see other rain measurements)
** Current wind speed in m/s (hover to see current wind gust speed)